Terminal Aerodrome Forecast
Issued by NWS Memphis, TN

Home | Current Version | Previous Version | Text Only | Print | Product List | Glossary On
Versions: 1 2 3 4 5 6 7 8 9 10 11 12 13 14
000
FTUS44 KMEG 291700 AAA
TAFJBR
TAF AMD
KJBR 291750Z 2918/3018 20010KT P6SM VCTS SCT060CB
      TEMPO 2920/2922 VRB10KT 6SM -TSRA
     FM300000 19007KT P6SM SCT060 BKN150
     FM300300 20005KT P6SM VCSH SCT060 OVC150
     FM300700 20004KT 6SM -SHRA BKN060
     FM301200 21005KT P6SM -SHRA VCTS SCT030 BKN045CB
      TEMPO 3014/3018 5SM -TSRA BKN035CB=

USA.gov is the U.S. government's official web portal to all federal, state and local government web resources and services.